Ionia, MI

1:21 AM EST on November 23, 2017 (GMT -0500)
Ionia

Weather History for KY70 - October, 2012

Change the Weather History Date:

Monday, October 8, 2012

  Actual Average (KGRR) Record (KGRR)
Temperature  
Mean Temperature 43 °F -  
Max Temperature 55 °F 63 °F 88 °F (2007)
Min Temperature 31 °F 43 °F 28 °F (1989)
Degree Days  
Heating Degree Days 22    
Moisture  
Dew Point 27 °F    
Average Humidity 57    
Maximum Humidity 93    
Minimum Humidity 27    
Precipitation  
Precipitation 0.00 in - - ()
Sea Level Pressure  
Sea Level Pressure 30.11 in    
Wind  
Wind Speed 8 mph (SSW)    
Max Wind Speed 17 mph    
Max Gust Speed 30 mph    
Visibility 10 miles    
Events      
Averages and records for this station are not official NWS values.
T = Trace of Precipitation, MM = Missing Value Source: NWS Daily Summary

Daily Weather History Graph

Daily Weather History Graph

Search for Another Location

Airport or City:

Trip Planner

Search our weather history database for the weather conditions in past years. The results will help you decide how hot, cold, wet, or windy it might be!

Date:

Astronomy

Oct. 08, 2012 Rise Set
Actual Time 7:46 AM EDT 7:08 PM EDT
Civil Twilight 7:17 AM EDT 7:36 PM EDT
Nautical Twilight 6:44 AM EDT 8:09 PM EDT
Astronomical Twilight 6:11 AM EDT 8:42 PM EDT
Moon 12:15 AM EDT (10/8) 3:06 PM EDT (10/8)
Length of Visible Light 12h 19m
Length of Day
11h 22m
Waning Gibbous, 46% of the Moon is Illuminated
Oct 8
Waning Gibbous
Oct 15
New
Oct 21
First Quarter
Oct 29
Full
Nov 6
Last Quarter

Hourly Weather History & Observations

Time (EDT) Temp. Windchill Dew Point Humidity Pressure Visibility Wind Dir Wind Speed Gust Speed Precip Events Conditions
12:14 AM 35.6 °F 31.7 °F 31.1 °F 84% 30.13 in 10.0 mi WSW 4.6 mph - N/A   Clear
12:34 AM 34.9 °F 30.8 °F 30.7 °F 85% 30.13 in 10.0 mi SW 4.6 mph - N/A   Clear
12:54 AM 34.9 °F 30.8 °F 30.7 °F 85% 30.12 in 10.0 mi SSW 4.6 mph - N/A   Clear
1:14 AM 32.2 °F - 29.5 °F 90% 30.12 in 10.0 mi Calm Calm - N/A   Clear
1:34 AM 32.0 °F 28.7 °F 29.8 °F 92% 30.12 in 10.0 mi South 3.5 mph - N/A   Clear
1:54 AM 32.2 °F 28.9 °F 30.2 °F 92% 30.12 in 10.0 mi South 3.5 mph - N/A   Clear
2:14 AM 32.2 °F 25.8 °F 29.7 °F 90% 30.12 in 10.0 mi SSW 6.9 mph - N/A   Clear
2:34 AM 33.8 °F 27.7 °F 30.7 °F 89% 30.13 in 10.0 mi SSW 6.9 mph - N/A   Clear
2:54 AM 33.6 °F 28.4 °F 30.6 °F 89% 30.13 in 10.0 mi SSW 5.8 mph - N/A   Clear
3:14 AM 31.8 °F 28.5 °F 29.3 °F 90% 30.13 in 10.0 mi South 3.5 mph - N/A   Scattered Clouds
3:34 AM 31.1 °F 25.4 °F 29.1 °F 92% 30.12 in 10.0 mi South 5.8 mph - N/A   Scattered Clouds
3:54 AM 31.1 °F 24.5 °F 28.9 °F 92% 30.12 in 10.0 mi South 6.9 mph - N/A   Scattered Clouds
4:14 AM 32.2 °F 25.8 °F 30.4 °F 93% 30.12 in 10.0 mi South 6.9 mph - N/A   Mostly Cloudy
4:34 AM 33.4 °F 29.1 °F 31.1 °F 91% 30.12 in 10.0 mi South 4.6 mph - N/A   Overcast
4:54 AM 36.3 °F 31.6 °F 31.3 °F 82% 30.12 in 10.0 mi South 5.8 mph - N/A   Overcast
5:14 AM 36.9 °F 32.2 °F 31.3 °F 80% 30.12 in 10.0 mi SSW 5.8 mph - N/A   Overcast
5:34 AM 36.7 °F 31.2 °F 31.6 °F 82% 30.11 in 10.0 mi South 6.9 mph - N/A   Mostly Cloudy
5:54 AM 35.8 °F 30.9 °F 31.1 °F 83% 30.12 in 10.0 mi South 5.8 mph - N/A   Scattered Clouds
6:14 AM 35.2 °F 31.2 °F 30.9 °F 84% 30.12 in 10.0 mi South 4.6 mph - N/A   Clear
6:34 AM 34.7 °F 29.6 °F 30.2 °F 84% 30.12 in 10.0 mi South 5.8 mph - N/A   Scattered Clouds
6:54 AM 34.2 °F 28.2 °F 30.2 °F 85% 30.13 in 10.0 mi SSW 6.9 mph - N/A   Clear
7:14 AM 34.7 °F 28.8 °F 30.2 °F 84% 30.13 in 10.0 mi South 6.9 mph - N/A   Mostly Cloudy
7:34 AM 35.6 °F 29.2 °F 30.7 °F 82% 30.13 in 10.0 mi SSW 8.1 mph - N/A   Overcast
7:54 AM 36.0 °F 29.0 °F 30.6 °F 81% 30.14 in 10.0 mi SSW 9.2 mph - N/A   Overcast
8:14 AM 36.9 °F 30.1 °F 30.2 °F 77% 30.14 in 10.0 mi SSW 9.2 mph - N/A   Overcast
8:34 AM 37.6 °F 30.5 °F 30.0 °F 74% 30.15 in 10.0 mi SSW 10.4 mph - N/A   Overcast
8:54 AM 38.8 °F 32.6 °F 29.7 °F 70% 30.15 in 10.0 mi SW 9.2 mph 17.3 mph N/A   Overcast
9:14 AM 40.3 °F 33.0 °F 29.5 °F 65% 30.15 in 10.0 mi SSW 12.7 mph 17.3 mph N/A   Mostly Cloudy
9:34 AM 41.9 °F 35.0 °F 28.4 °F 59% 30.16 in 10.0 mi SW 12.7 mph - N/A   Overcast
9:54 AM 43.3 °F 37.2 °F 28.0 °F 55% 30.15 in 10.0 mi SW 11.5 mph - N/A   Scattered Clouds
10:14 AM 45.9 °F 39.7 °F 27.0 °F 48% 30.15 in 10.0 mi SW 13.8 mph - N/A   Clear
10:34 AM 47.3 °F - 25.7 °F 43% 30.15 in 10.0 mi SW 12.7 mph 19.6 mph N/A   Scattered Clouds
10:54 AM 48.9 °F - 25.2 °F 40% 30.15 in 10.0 mi SW 13.8 mph 20.7 mph N/A   Clear
11:14 AM 49.8 °F - 25.2 °F 38% 30.15 in 10.0 mi SSW 15.0 mph 24.2 mph N/A   Clear
11:34 AM 50.2 °F - 25.2 °F 38% 30.14 in 10.0 mi SSW 16.1 mph 21.9 mph N/A   Clear
11:54 AM 51.4 °F - 25.7 °F 37% 30.15 in 10.0 mi SW 17.3 mph 23.0 mph N/A   Clear
12:14 PM 52.5 °F - 25.5 °F 35% 30.14 in 10.0 mi SSW 16.1 mph 23.0 mph N/A   Scattered Clouds
12:34 PM 52.3 °F - 25.9 °F 36% 30.14 in 10.0 mi SW 16.1 mph 29.9 mph N/A   Scattered Clouds
12:54 PM 53.1 °F - 25.5 °F 34% 30.14 in 10.0 mi WSW 12.7 mph 17.3 mph N/A   Scattered Clouds
1:14 PM 53.8 °F - 25.0 °F 33% 30.13 in 10.0 mi SW 12.7 mph 20.7 mph N/A   Scattered Clouds
1:34 PM 53.8 °F - 23.9 °F 31% 30.13 in 10.0 mi SW 11.5 mph 18.4 mph N/A   Scattered Clouds
1:54 PM 54.1 °F - 23.5 °F 31% 30.12 in 10.0 mi SSW 16.1 mph 23.0 mph N/A   Clear
2:14 PM 54.3 °F - 22.8 °F 29% 30.11 in 10.0 mi SSW 11.5 mph 24.2 mph N/A   Clear
2:34 PM 54.3 °F - 22.1 °F 29% 30.10 in 10.0 mi SW 17.3 mph 23.0 mph N/A   Clear
2:54 PM 54.5 °F - 22.1 °F 28% 30.09 in 10.0 mi SSW 12.7 mph 20.7 mph N/A   Clear
3:14 PM 54.9 °F - 22.1 °F 28% 30.09 in 10.0 mi SSW 15.0 mph 19.6 mph N/A   Clear
3:34 PM 54.5 °F - 21.2 °F 27% 30.09 in 10.0 mi SSW 12.7 mph - N/A   Clear
3:54 PM 54.5 °F - 21.6 °F 28% 30.08 in 10.0 mi SSW 13.8 mph - N/A   Clear
4:14 PM 55.4 °F - 21.9 °F 27% 30.07 in 10.0 mi SSW 11.5 mph 18.4 mph N/A   Clear
4:34 PM 55.0 °F - 21.9 °F 28% 30.07 in 10.0 mi South 15.0 mph 20.7 mph N/A   Clear
4:54 PM 54.9 °F - 21.9 °F 28% 30.06 in 10.0 mi SSW 12.7 mph 20.7 mph N/A   Clear
5:14 PM 54.7 °F - 22.1 °F 28% 30.06 in 10.0 mi SSW 13.8 mph 19.6 mph N/A   Clear
5:34 PM 54.5 °F - 22.1 °F 28% 30.06 in 10.0 mi SSW 13.8 mph 19.6 mph N/A   Clear
5:54 PM 54.0 °F - 22.1 °F 29% 30.05 in 10.0 mi SSW 11.5 mph 17.3 mph N/A   Clear
6:14 PM 53.6 °F - 22.8 °F 30% 30.06 in 10.0 mi SSW 15.0 mph - N/A   Clear
6:34 PM 52.9 °F - 23.0 °F 31% 30.05 in 10.0 mi SSW 11.5 mph - N/A   Clear
6:54 PM 51.6 °F - 23.7 °F 34% 30.05 in 10.0 mi SSW 9.2 mph 18.4 mph N/A   Clear
7:14 PM 50.0 °F - 25.2 °F 38% 30.06 in 10.0 mi South 6.9 mph - N/A   Clear
7:34 PM 48.6 °F - 25.7 °F 41% 30.06 in 10.0 mi South 6.9 mph - N/A   Clear
7:54 PM 47.3 °F - 25.9 °F 43% 30.06 in 10.0 mi South 5.8 mph - N/A   Clear
8:14 PM 44.8 °F 40.4 °F 26.6 °F 49% 30.06 in 7.0 mi South 8.1 mph - N/A   Clear
8:34 PM 43.7 °F 39.7 °F 27.3 °F 53% 30.06 in 10.0 mi South 6.9 mph - N/A   Clear
8:54 PM 44.1 °F 39.5 °F 27.3 °F 52% 30.06 in 10.0 mi South 8.1 mph - N/A   Clear
9:34 PM 44.8 °F 40.4 °F 27.1 °F 50% 30.06 in 10.0 mi South 8.1 mph - N/A   Clear
9:54 PM 43.9 °F 39.9 °F 27.3 °F 52% 30.07 in 10.0 mi South 6.9 mph - N/A   Clear
10:14 PM 41.7 °F 37.3 °F 27.5 °F 57% 30.07 in 10.0 mi South 6.9 mph - N/A   Clear
10:34 PM 42.8 °F 38.6 °F 27.5 °F 55% 30.07 in 10.0 mi South 6.9 mph - N/A   Clear
10:54 PM 43.2 °F 37.4 °F 27.3 °F 54% 30.06 in 10.0 mi South 10.4 mph - N/A   Clear
11:14 PM 43.0 °F 37.2 °F 27.5 °F 54% 30.06 in 10.0 mi South 10.4 mph - N/A   Clear
11:54 PM 43.9 °F 37.9 °F 27.5 °F 53% 30.05 in 10.0 mi South 11.5 mph - N/A   Clear